This is the latest recevied weather packets stored in our database for station/object W0DXV. If no packets are shown the sender has not sent any weather packets the latest 10 day(s).
| Time | Temp. | Humidity | Pressure | Rain* | Wind** | Luminosity | Snow |
|---|---|---|---|---|---|---|---|
| 1777602946 | 12.78° C | 69% | 1009.5 hPa | 0 mm | - | 0 W/m² | - |
| 1777602642 | 12.78° C | 67% | 1009.2 hPa | 0 mm | - | 0 W/m² | - |
| 1777602337 | 12.78° C | 66% | 1009.4 hPa | 0 mm | - | 0 W/m² | - |
| 1777602033 | 12.78° C | 57% | 1009.4 hPa | 0 mm | - | 0 W/m² | - |
| 1777601728 | 12.78° C | 63% | 1009.1 hPa | 0 mm | - | 0 W/m² | - |
| 1777601423 | 13.33° C | 66% | 1009 hPa | 0 mm | - | 0 W/m² | - |
| 1777601120 | 13.89° C | 67% | 1009.1 hPa | 0 mm | - | 0 W/m² | - |
| 1777600818 | 14.44° C | 59% | 1009.1 hPa | 0 mm | - | 0 W/m² | - |
| 1777600513 | 13.89° C | 59% | 1009 hPa | 0 mm | - | 0 W/m² | - |
| 1777600209 | 13.89° C | 62% | 1008.9 hPa | 0 mm | - | 0 W/m² | - |
| 1777599904 | 13.89° C | 63% | 1009 hPa | 0 mm | - | 0 W/m² | - |
| 1777599601 | 13.89° C | 64% | 1008.7 hPa | 0 mm | - | 0 W/m² | - |
| 1777599293 | 13.89° C | 57% | 1008.5 hPa | 0 mm | - | 0 W/m² | - |
| 1777598988 | 13.89° C | 55% | 1008.5 hPa | 0 mm | - | 0 W/m² | - |
| 1777598686 | 13.89° C | 55% | 1008.3 hPa | 0 mm | - | 0 W/m² | - |
| 1777598382 | 14.44° C | 63% | 1008.4 hPa | 0 mm | - | 0 W/m² | - |
| 1777598081 | 15° C | 63% | 1008.2 hPa | 0 mm | - | 0 W/m² | - |
| 1777597779 | 15° C | 52% | 1008.4 hPa | 0 mm | - | 0 W/m² | - |
| 1777597475 | 15.56° C | 57% | 1008 hPa | 0 mm | - | 0 W/m² | - |
| 1777597171 | 16.67° C | 62% | 1008 hPa | 0 mm | - | 0 W/m² | - |
| 1777596867 | 16.67° C | 40% | 1007.7 hPa | 0 mm | - | 0 W/m² | - |
| 1777596562 | 16.67° C | 40% | 1007.4 hPa | 0 mm | - | 0 W/m² | - |
| 1777596260 | 17.22° C | 41% | 1007.6 hPa | 0 mm | - | 0 W/m² | - |
| 1777595957 | 17.22° C | 44% | 1007.6 hPa | 0 mm | - | 0 W/m² | - |
| 1777595657 | 16.67° C | 44% | 1007.4 hPa | 0 mm | - | 0 W/m² | - |
* Rain latest hour (hover to see other rain measurements)
** Current wind speed in m/s (hover to see current wind gust speed)